Location: Harwich
(41.6860°N, 70.0760°W)
Time: 19:45:31
(UTC-04:00)

ISS - Visible Passes

Search period start: 24 July 2021 00:00
Search period end: 03 August 2021 00:00
Orbit: 419 x 421 km, 51.6° (Epoch: 24 July)

Date Brightness Start Highest point End Pass type
(mag) Time Alt. Az. Time Alt. Az. Time Alt. Az.
24 Jul -1.0 20:57:14 10° NW 20:59:19 15° N 21:01:23 10° NE visible
24 Jul -2.0 22:34:02 10° NW 22:36:59 27° NNE 22:37:38 25° NE visible
25 Jul -1.5 21:46:48 10° NW 21:49:29 21° NNE 21:51:48 12° ENE visible
25 Jul -1.5 23:23:17 10° NW 23:24:44 24° NW 23:24:44 24° NW visible
26 Jul -1.3 20:59:33 10° NNW 21:01:58 18° NNE 21:04:22 10° ENE visible
26 Jul -3.0 22:36:00 10° NW 22:38:57 51° N 22:38:57 51° N visible
27 Jul -2.6 21:48:45 10° NW 21:51:56 37° NNE 21:53:11 26° ENE visible
27 Jul -0.8 23:25:42 10° WNW 23:26:08 13° WNW 23:26:08 13° WNW visible
28 Jul -2.1 21:01:31 10° NW 21:04:28 27° NNE 21:07:25 10° E visible
28 Jul -2.4 22:38:09 10° WNW 22:40:24 35° W 22:40:24 35° W visible
29 Jul -3.9 21:50:45 10° NW 21:54:08 88° SW 21:54:43 59° SE visible
30 Jul -3.4 21:03:26 10° NW 21:06:46 57° NNE 21:09:04 18° ESE visible
30 Jul -1.2 22:40:57 10° W 22:42:01 15° WSW 22:42:01 15° WSW visible
31 Jul -2.5 21:53:06 10° WNW 21:56:05 29° SW 21:56:26 29° SSW visible
01 Aug -3.2 21:05:32 10° WNW 21:08:49 50° SW 21:10:53 20° SSE visible
02 Aug -1.0 21:57:20 10° WSW 21:57:47 10° SW 21:58:15 10° SW visible
